QPF
0.00 0.00 0.00 0.00 0.00 0.00 0.01 0.00 0.01 0.01 0.01 0.02 0.03 0.04 0.04 0.04 0.04 0.04 0.05 0.05 0.04 0.05 0.05 0.07 0.08 0.09 0.11 0.09 0.09 0.09 0.09 0.09 0.11 0.12 0.10 0.10 0.09 0.10 0.11 0.14 0.18 0.20 0.23 0.25
0.00 0.00 0.00 0.00 0.00 0.00 0.00 0.00 0.00 0.00 0.01 0.01 0.01 0.02 0.01 0.01 0.01 0.02 0.02 0.01 0.01 0.01 0.01 0.02 0.03 0.05 0.06 0.05 0.03 0.03 0.03 0.03 0.06 0.08 0.09 0.08 0.07 0.06 0.06 0.07 0.10 0.11 0.12 0.16
0.00 0.00 0.00 0.01 0.00 0.00 0.00 0.00 0.00 0.00 0.00 0.00 0.01 0.01 0.01 0.01 0.01 0.01 0.00 0.00 0.00 0.00 0.00 0.01 0.01 0.01 0.02 0.02 0.01 0.01 0.01 0.01 0.01 0.02 0.02 0.03 0.03 0.03 0.04 0.03 0.03 0.03 0.05 0.06
0.00 0.00 0.00 0.01 0.01 0.00 0.00 0.00 0.00 0.00 0.00 0.00 0.00 0.00 0.01 0.00 0.00 0.00 0.01 0.00 0.00 0.00 0.00 0.00 0.00 0.00 0.00 0.00 0.00 0.00 0.00 0.00 0.00 0.00 0.00 0.00 0.01 0.01 0.01 0.01 0.01 0.01 0.01 0.02
0.00 0.00 0.00 0.01 0.00 0.00 0.00 0.00 0.00 0.00 0.00 0.00 0.00 0.00 0.00 0.00 0.00 0.00 0.00 0.00 0.00 0.00 0.00 0.00 0.00 0.00 0.00 0.00 0.00 0.00 0.00 0.00 0.00 0.00 0.00 0.00 0.00 0.00 0.00 0.00 0.00 0.00 0.00 0.00
0.00 0.00 0.00 0.00 0.00 0.00 0.00 0.00 0.00 0.00 0.00 0.00 0.00 0.00 0.00 0.00 0.00 0.00 0.00 0.00 0.00 0.00 0.00 0.00 0.00 0.00 0.00 0.00 0.00 0.00 0.00 0.00 0.00 0.00 0.00 0.00 0.00 0.00 0.00 0.00 0.00 0.00 0.00 0.00
0.00 0.00 0.00 0.00 0.00 0.00 0.00 0.00 0.00 0.00 0.00 0.00 0.00 0.00 0.00 0.00 0.00 0.00 0.00 0.00 0.00 0.00 0.00 0.00 0.00 0.00 0.00 0.00 0.00 0.00 0.00 0.00 0.00 0.00 0.00 0.00 0.00 0.00 0.00 0.00 0.00 0.00 0.00 0.00
0.00 0.00 0.00 0.00 0.00 0.00 0.00 0.00 0.00 0.00 0.00 0.00 0.00 0.00 0.00 0.00 0.00 0.00 0.00 0.00 0.00 0.00 0.00 0.00 0.00 0.00 0.00 0.00 0.00 0.00 0.00 0.00 0.00 0.00 0.00 0.00 0.00 0.00 0.00 0.00 0.00 0.00 0.00 0.00
0.00 0.00 0.00 0.00 0.00 0.00 0.00 0.00 0.00 0.00 0.00 0.00 0.00 0.00 0.00 0.00 0.00 0.00 0.00 0.00 0.00 0.00 0.00 0.00 0.00 0.00 0.00 0.00 0.00 0.00 0.00 0.00 0.00 0.00 0.00 0.00 0.00 0.00 0.00 0.00 0.00 0.00 0.00 0.00
0.00 0.00 0.00 0.00 0.00 0.00 0.00 0.00 0.00 0.00 0.00 0.00 0.00 0.00 0.00 0.00 0.00 0.00 0.00 0.00 0.00 0.00 0.00 0.00 0.00 0.00 0.00 0.00 0.00 0.00 0.00 0.00 0.00 0.00 0.00 0.00 0.00 0.00 0.00 0.00 0.00 0.00 0.00 0.00
0.00 0.00 0.00 0.00 0.00 0.00 0.00 0.00 0.00 0.00 0.00 0.00 0.00 0.00 0.00 0.00 0.00 0.00 0.00 0.00 0.00 0.00 0.00 0.00 0.00 0.00 0.00 0.00 0.00 0.00 0.00 0.00 0.00 0.00 0.00 0.00 0.00 0.00 0.00 0.00 0.00 0.00 0.00 0.00
0.00 0.00 0.00 0.00 0.00 0.00 0.00 0.00 0.00 0.00 0.00 0.00 0.00 0.00 0.00 0.00 0.00 0.00 0.00 0.00 0.00 0.00 0.00 0.00 0.00 0.00 0.00 0.00 0.00 0.00 0.00 0.00 0.00 0.00 0.00 0.00 0.00 0.00 0.00 0.00 0.00 0.00 0.00 0.00
0.00 0.00 0.00 0.00 0.00 0.00 0.00 0.00 0.00 0.00 0.00 0.00 0.00 0.00 0.00 0.00 0.00 0.00 0.00 0.00 0.00 0.00 0.00 0.00 0.00 0.00 0.00 0.00 0.00 0.00 0.00 0.00 0.00 0.00 0.00 0.00 0.00 0.00 0.00 0.00 0.00 0.00 0.00 0.00
0.00 0.00 0.00 0.00 0.00 0.00 0.00 0.00 0.00 0.00 0.00 0.00 0.00 0.00 0.00 0.00 0.00 0.00 0.00 0.00 0.00 0.00 0.00 0.00 0.00 0.00 0.00 0.00 0.00 0.00 0.00 0.00 0.00 0.00 0.00 0.00 0.00 0.00 0.00 0.00 0.00 0.00 0.00 0.00
0.00 0.00 0.00 0.00 0.00 0.00 0.00 0.00 0.00 0.00 0.00 0.00 0.00 0.00 0.00 0.00 0.00 0.00 0.00 0.00 0.00 0.00 0.00 0.00 0.00 0.00 0.00 0.00 0.00 0.00 0.00 0.00 0.00 0.00 0.00 0.00 0.00 0.00 0.00 0.00 0.00 0.00 0.00 0.00
0.00 0.00 0.00 0.00 0.00 0.00 0.00 0.00 0.00 0.00 0.00 0.00 0.00 0.00 0.00 0.00 0.00 0.00 0.00 0.00 0.00 0.00 0.00 0.00 0.00 0.00 0.00 0.00 0.00 0.00 0.00 0.00 0.00 0.00 0.00 0.00 0.00 0.00 0.00 0.00 0.00 0.00 0.00 0.00
0.00 0.00 0.00 0.00 0.00 0.00 0.00 0.00 0.00 0.00 0.00 0.00 0.00 0.00 0.00 0.00 0.00 0.00 0.00 0.00 0.00 0.00 0.00 0.00 0.00 0.00 0.00 0.00 0.00 0.00 0.00 0.00 0.00 0.00 0.00 0.00 0.00 0.00 0.00 0.00 0.00 0.00 0.00 0.00
0.00 0.00 0.00 0.00 0.00 0.00 0.00 0.00 0.00 0.00 0.00 0.00 0.00 0.00 0.00 0.00 0.00 0.00 0.00 0.00 0.00 0.00 0.00 0.00 0.00 0.00 0.00 0.00 0.00 0.00 0.00 0.00 0.00 0.00 0.00 0.00 0.00 0.00 0.00 0.00 0.00 0.00 0.00 0.00
0.00 0.00 0.00 0.00 0.00 0.00 0.00 0.00 0.00 0.00 0.00 0.00 0.00 0.00 0.00 0.00 0.00 0.00 0.00 0.00 0.00 0.00 0.00 0.00 0.00 0.00 0.00 0.00 0.00 0.00 0.00 0.00 0.00 0.00 0.00 0.00 0.00 0.00 0.00 0.00 0.00 0.00 0.00 0.00
0.00 0.00 0.00 0.00 0.00 0.00 0.00 0.00 0.00 0.00 0.00 0.00 0.00 0.00 0.00 0.00 0.00 0.00 0.00 0.00 0.00 0.00 0.00 0.00 0.00 0.00 0.00 0.00 0.00 0.00 0.00 0.00 0.00 0.00 0.00 0.00 0.00 0.00 0.00 0.00 0.00 0.00 0.00 0.00
0.00 0.00 0.00 0.00 0.00 0.00 0.00 0.00 0.00 0.00 0.00 0.00 0.00 0.00 0.00 0.00 0.00 0.00 0.00 0.00 0.00 0.00 0.00 0.00 0.00 0.00 0.00 0.00 0.00 0.00 0.00 0.00 0.00 0.00 0.00 0.00 0.00 0.00 0.00 0.00 0.00 0.00 0.00 0.00
0.00 0.00 0.00 0.00 0.00 0.00 0.00 0.00 0.00 0.00 0.00 0.00 0.00 0.00 0.00 0.00 0.00 0.00 0.00 0.00 0.00 0.00 0.00 0.00 0.00 0.00 0.00 0.00 0.00 0.00 0.00 0.00 0.00 0.00 0.00 0.00 0.00 0.00 0.00 0.00 0.00 0.00 0.00 0.00
0.00 0.00 0.00 0.00 0.00 0.00 0.00 0.00 0.00 0.00 0.00 0.00 0.00 0.00 0.00 0.00 0.00 0.00 0.00 0.00 0.00 0.00 0.00 0.00 0.00 0.00 0.00 0.00 0.00 0.00 0.00 0.00 0.00 0.00 0.00 0.00 0.00 0.00 0.00 0.00 0.00 0.00 0.00 0.00
0.00 0.00 0.00 0.00 0.00 0.00 0.00 0.00 0.00 0.00 0.00 0.00 0.00 0.00 0.00 0.00 0.00 0.00 0.00 0.00 0.00 0.00 0.00 0.00 0.00 0.00 0.00 0.00 0.00 0.00 0.00 0.00 0.00 0.00 0.00 0.00 0.00 0.00 0.00 0.00 0.00 0.00 0.00 0.00
0.00 0.00 0.00 0.00 0.00 0.00 0.00 0.00 0.00 0.00 0.00 0.00 0.00 0.00 0.00 0.00 0.00 0.00 0.00 0.00 0.00 0.00 0.00 0.00 0.00 0.00 0.00 0.00 0.00 0.00 0.00 0.00 0.00 0.00 0.00 0.00 0.00 0.00 0.00 0.00 0.00 0.00 0.00 0.00
0.00 0.00 0.00 0.00 0.00 0.00 0.00 0.00 0.00 0.00 0.00 0.00 0.00 0.00 0.00 0.00 0.00 0.00 0.00 0.00 0.00 0.00 0.00 0.00 0.00 0.00 0.00 0.00 0.00 0.00 0.00 0.00 0.00 0.00 0.00 0.00 0.00 0.00 0.00 0.00 0.00 0.00 0.00 0.00
0.00 0.00 0.00 0.00 0.00 0.00 0.00 0.00 0.00 0.00 0.00 0.00 0.00 0.00 0.00 0.00 0.00 0.00 0.00 0.00 0.00 0.00 0.00 0.00 0.00 0.00 0.00 0.00 0.00 0.00 0.00 0.00 0.00 0.00 0.00 0.00 0.00 0.00 0.00 0.00 0.00 0.00 0.00 0.00
MSLP
1024.09 1024.47 1024.87 1025.25 1025.60 1025.88 1026.05 1026.10 1026.01 1025.76 1025.38 1024.90 1024.33 1023.72 1023.10 1022.50 1021.93 1021.39 1020.90 1020.43 1019.98 1019.55 1019.13 1018.72 1018.34 1017.98 1017.66 1017.39 1017.14 1016.93 1016.72 1016.51 1016.28 1016.02 1015.74 1015.44 1015.14 1014.87 1014.62 1014.43 1014.30 1014.22 1014.19 1014.18
1024.20 1024.50 1024.77 1025.01 1025.20 1025.33 1025.37 1025.31 1025.15 1024.89 1024.55 1024.14 1023.69 1023.22 1022.75 1022.30 1021.86 1021.45 1021.05 1020.66 1020.28 1019.90 1019.52 1019.15 1018.80 1018.48 1018.19 1017.94 1017.70 1017.49 1017.28 1017.05 1016.80 1016.53 1016.23 1015.93 1015.62 1015.33 1015.08 1014.87 1014.72 1014.62 1014.56 1014.52
1024.39 1024.57 1024.70 1024.79 1024.83 1024.81 1024.74 1024.61 1024.42 1024.18 1023.90 1023.59 1023.26 1022.93 1022.60 1022.27 1021.94 1021.61 1021.27 1020.92 1020.56 1020.20 1019.85 1019.50 1019.18 1018.90 1018.64 1018.41 1018.21 1018.01 1017.80 1017.58 1017.34 1017.07 1016.77 1016.47 1016.16 1015.88 1015.63 1015.43 1015.27 1015.15 1015.06 1014.99
1024.62 1024.67 1024.65 1024.59 1024.49 1024.36 1024.20 1024.03 1023.84 1023.65 1023.45 1023.25 1023.04 1022.83 1022.60 1022.36 1022.10 1021.81 1021.49 1021.15 1020.79 1020.43 1020.08 1019.75 1019.45 1019.20 1018.98 1018.79 1018.63 1018.46 1018.29 1018.10 1017.88 1017.63 1017.36 1017.07 1016.79 1016.52 1016.29 1016.09 1015.92 1015.79 1015.69 1015.59
1024.81 1024.71 1024.56 1024.37 1024.16 1023.94 1023.74 1023.55 1023.38 1023.25 1023.13 1023.03 1022.93 1022.81 1022.66 1022.48 1022.25 1021.97 1021.65 1021.29 1020.91 1020.54 1020.18 1019.86 1019.59 1019.37 1019.20 1019.07 1018.96 1018.86 1018.74 1018.59 1018.42 1018.21 1017.98 1017.73 1017.48 1017.24 1017.02 1016.83 1016.67 1016.53 1016.40 1016.27
1024.83 1024.62 1024.36 1024.07 1023.78 1023.51 1023.28 1023.10 1022.98 1022.90 1022.86 1022.85 1022.82 1022.78 1022.69 1022.54 1022.32 1022.04 1021.70 1021.31 1020.91 1020.52 1020.16 1019.86 1019.62 1019.44 1019.33 1019.26 1019.22 1019.18 1019.13 1019.05 1018.94 1018.79 1018.61 1018.41 1018.20 1018.00 1017.80 1017.63 1017.46 1017.31 1017.15 1016.99
1024.59 1024.31 1023.98 1023.63 1023.30 1023.02 1022.80 1022.64 1022.57 1022.55 1022.58 1022.62 1022.66 1022.67 1022.61 1022.48 1022.27 1021.97 1021.61 1021.21 1020.80 1020.40 1020.05 1019.77 1019.56 1019.43 1019.38 1019.37 1019.40 1019.44 1019.46 1019.46 1019.42 1019.34 1019.22 1019.08 1018.92 1018.75 1018.58 1018.42 1018.25 1018.08 1017.91 1017.72
1024.06 1023.73 1023.38 1023.02 1022.70 1022.44 1022.25 1022.14 1022.12 1022.16 1022.24 1022.34 1022.42 1022.46 1022.42 1022.30 1022.09 1021.79 1021.43 1021.03 1020.62 1020.24 1019.91 1019.65 1019.48 1019.40 1019.40 1019.46 1019.55 1019.66 1019.75 1019.82 1019.85 1019.84 1019.79 1019.70 1019.59 1019.46 1019.31 1019.16 1018.99 1018.81 1018.62 1018.40
1023.24 1022.92 1022.59 1022.27 1022.00 1021.79 1021.66 1021.62 1021.65 1021.74 1021.87 1022.01 1022.12 1022.17 1022.15 1022.05 1021.85 1021.56 1021.22 1020.83 1020.45 1020.09 1019.79 1019.57 1019.44 1019.40 1019.44 1019.54 1019.68 1019.84 1019.99 1020.12 1020.22 1020.27 1020.27 1020.24 1020.17 1020.08 1019.95 1019.81 1019.65 1019.46 1019.26 1019.03
1022.22 1021.94 1021.67 1021.43 1021.24 1021.12 1021.08 1021.11 1021.21 1021.35 1021.52 1021.68 1021.81 1021.88 1021.88 1021.79 1021.61 1021.35 1021.04 1020.70 1020.35 1020.03 1019.77 1019.58 1019.48 1019.46 1019.52 1019.64 1019.81 1020.00 1020.18 1020.36 1020.50 1020.60 1020.66 1020.67 1020.64 1020.58 1020.49 1020.36 1020.20 1020.02 1019.82 1019.59
1021.10 1020.89 1020.71 1020.57 1020.50 1020.50 1020.56 1020.67 1020.84 1021.03 1021.23 1021.42 1021.56 1021.65 1021.66 1021.59 1021.44 1021.23 1020.96 1020.67 1020.37 1020.10 1019.87 1019.70 1019.61 1019.59 1019.65 1019.77 1019.93 1020.12 1020.32 1020.51 1020.68 1020.81 1020.91 1020.97 1020.98 1020.95 1020.89 1020.78 1020.64 1020.47 1020.28 1020.07
1019.99 1019.86 1019.79 1019.78 1019.84 1019.96 1020.13 1020.34 1020.57 1020.82 1021.05 1021.25 1021.40 1021.50 1021.53 1021.49 1021.38 1021.22 1021.00 1020.76 1020.51 1020.28 1020.07 1019.92 1019.82 1019.79 1019.82 1019.90 1020.03 1020.19 1020.38 1020.56 1020.74 1020.90 1021.03 1021.12 1021.18 1021.19 1021.15 1021.08 1020.97 1020.83 1020.66 1020.48
1018.98 1018.93 1018.97 1019.08 1019.27 1019.52 1019.80 1020.10 1020.40 1020.69 1020.95 1021.17 1021.33 1021.44 1021.49 1021.47 1021.40 1021.28 1021.12 1020.93 1020.72 1020.52 1020.33 1020.17 1020.06 1019.98 1019.96 1020.00 1020.08 1020.20 1020.35 1020.52 1020.69 1020.86 1021.02 1021.15 1021.24 1021.29 1021.29 1021.26 1021.19 1021.08 1020.95 1020.81
1018.09 1018.12 1018.26 1018.49 1018.80 1019.16 1019.54 1019.92 1020.28 1020.61 1020.89 1021.12 1021.29 1021.41 1021.47 1021.48 1021.44 1021.36 1021.25 1021.10 1020.93 1020.75 1020.57 1020.40 1020.25 1020.13 1020.05 1020.02 1020.04 1020.11 1020.22 1020.36 1020.53 1020.71 1020.89 1021.05 1021.18 1021.27 1021.32 1021.33 1021.30 1021.24 1021.16 1021.07
1017.33 1017.43 1017.65 1017.98 1018.39 1018.84 1019.30 1019.74 1020.15 1020.51 1020.80 1021.04 1021.21 1021.33 1021.41 1021.44 1021.43 1021.39 1021.31 1021.20 1021.06 1020.90 1020.72 1020.53 1020.35 1020.18 1020.05 1019.96 1019.92 1019.93 1020.00 1020.12 1020.28 1020.46 1020.66 1020.85 1021.02 1021.15 1021.25 1021.31 1021.33 1021.32 1021.28 1021.24
1016.69 1016.84 1017.13 1017.53 1018.01 1018.52 1019.04 1019.52 1019.95 1020.33 1020.63 1020.86 1021.03 1021.16 1021.24 1021.29 1021.30 1021.29 1021.25 1021.17 1021.06 1020.91 1020.74 1020.54 1020.33 1020.13 1019.95 1019.81 1019.72 1019.69 1019.72 1019.82 1019.96 1020.15 1020.36 1020.58 1020.78 1020.95 1021.09 1021.19 1021.26 1021.30 1021.31 1021.32
1016.14 1016.33 1016.66 1017.10 1017.62 1018.17 1018.71 1019.21 1019.65 1020.02 1020.32 1020.55 1020.72 1020.85 1020.94 1021.00 1021.04 1021.06 1021.04 1021.00 1020.91 1020.79 1020.62 1020.43 1020.21 1019.99 1019.78 1019.60 1019.48 1019.41 1019.42 1019.49 1019.63 1019.81 1020.03 1020.26 1020.49 1020.69 1020.87 1021.01 1021.11 1021.19 1021.24 1021.30
1015.69 1015.90 1016.24 1016.70 1017.23 1017.78 1018.31 1018.81 1019.24 1019.60 1019.89 1020.11 1020.27 1020.40 1020.50 1020.58 1020.65 1020.69 1020.72 1020.70 1020.66 1020.56 1020.42 1020.24 1020.03 1019.80 1019.58 1019.38 1019.24 1019.15 1019.13 1019.18 1019.30 1019.48 1019.69 1019.93 1020.16 1020.38 1020.58 1020.75 1020.88 1020.99 1021.08 1021.17
1015.36 1015.57 1015.91 1016.35 1016.85 1017.37 1017.88 1018.34 1018.74 1019.08 1019.35 1019.56 1019.73 1019.86 1019.98 1020.08 1020.17 1020.25 1020.31 1020.34 1020.33 1020.28 1020.17 1020.02 1019.83 1019.62 1019.40 1019.20 1019.04 1018.94 1018.90 1018.93 1019.02 1019.18 1019.37 1019.59 1019.82 1020.04 1020.25 1020.42 1020.57 1020.70 1020.82 1020.94
1015.19 1015.38 1015.68 1016.07 1016.52 1016.98 1017.44 1017.85 1018.21 1018.52 1018.77 1018.97 1019.13 1019.28 1019.41 1019.54 1019.67 1019.78 1019.89 1019.96 1020.00 1019.99 1019.93 1019.81 1019.66 1019.47 1019.27 1019.07 1018.91 1018.79 1018.72 1018.72 1018.78 1018.90 1019.06 1019.25 1019.46 1019.66 1019.86 1020.04 1020.20 1020.34 1020.48 1020.62
1015.20 1015.35 1015.59 1015.91 1016.27 1016.66 1017.03 1017.38 1017.69 1017.96 1018.18 1018.37 1018.54 1018.70 1018.86 1019.01 1019.17 1019.33 1019.48 1019.60 1019.68 1019.72 1019.70 1019.63 1019.51 1019.35 1019.17 1018.98 1018.82 1018.68 1018.59 1018.55 1018.56 1018.63 1018.74 1018.89 1019.06 1019.24 1019.41 1019.58 1019.75 1019.91 1020.07 1020.23
1015.40 1015.48 1015.64 1015.87 1016.13 1016.42 1016.70 1016.98 1017.22 1017.45 1017.64 1017.82 1017.99 1018.16 1018.34 1018.52 1018.71 1018.90 1019.08 1019.24 1019.37 1019.45 1019.47 1019.44 1019.35 1019.22 1019.06 1018.89 1018.71 1018.56 1018.44 1018.35 1018.32 1018.34 1018.39 1018.49 1018.61 1018.76 1018.91 1019.07 1019.24 1019.41 1019.58 1019.77
1015.77 1015.77 1015.83 1015.94 1016.10 1016.28 1016.46 1016.65 1016.83 1017.00 1017.17 1017.33 1017.49 1017.66 1017.85 1018.05 1018.26 1018.48 1018.68 1018.87 1019.02 1019.13 1019.19 1019.19 1019.13 1019.03 1018.89 1018.72 1018.54 1018.37 1018.22 1018.10 1018.02 1017.98 1017.98 1018.03 1018.11 1018.21 1018.34 1018.50 1018.66 1018.85 1019.04 1019.26
1016.24 1016.15 1016.11 1016.11 1016.15 1016.22 1016.31 1016.41 1016.52 1016.64 1016.76 1016.89 1017.04 1017.21 1017.39 1017.59 1017.80 1018.02 1018.23 1018.43 1018.59 1018.72 1018.79 1018.82 1018.79 1018.70 1018.58 1018.43 1018.25 1018.07 1017.90 1017.75 1017.63 1017.55 1017.50 1017.50 1017.54 1017.62 1017.73 1017.87 1018.04 1018.23 1018.45 1018.70
1016.74 1016.57 1016.44 1016.34 1016.27 1016.24 1016.23 1016.25 1016.29 1016.35 1016.42 1016.52 1016.64 1016.78 1016.94 1017.12 1017.31 1017.51 1017.70 1017.89 1018.04 1018.17 1018.25 1018.29 1018.28 1018.22 1018.11 1017.98 1017.81 1017.64 1017.46 1017.30 1017.15 1017.04 1016.96 1016.92 1016.93 1016.98 1017.08 1017.21 1017.38 1017.59 1017.83 1018.09
1017.19 1016.95 1016.74 1016.56 1016.41 1016.29 1016.21 1016.15 1016.12 1016.12 1016.15 1016.20 1016.27 1016.37 1016.49 1016.62 1016.77 1016.93 1017.08 1017.23 1017.37 1017.48 1017.56 1017.60 1017.61 1017.57 1017.49 1017.38 1017.24 1017.08 1016.92 1016.75 1016.60 1016.48 1016.38 1016.33 1016.31 1016.34 1016.42 1016.55 1016.71 1016.92 1017.17 1017.45
1017.49 1017.22 1016.97 1016.74 1016.53 1016.35 1016.21 1016.09 1016.01 1015.95 1015.92 1015.92 1015.94 1015.98 1016.03 1016.11 1016.20 1016.29 1016.40 1016.50 1016.60 1016.68 1016.75 1016.79 1016.81 1016.80 1016.75 1016.67 1016.57 1016.45 1016.31 1016.17 1016.03 1015.91 1015.81 1015.74 1015.71 1015.73 1015.79 1015.90 1016.06 1016.26 1016.50 1016.78
Thickness
5660 5661 5655 5647 5642 5637 5628 5618 5607 5608 5607 5611 5614 5614 5615 5617 5619 5621 5623 5624 5625 5626 5627 5629 5631 5634 5637 5638 5641 5644 5646 5648 5649 5651 5653 5654 5655 5656 5656 5657 5657 5657 5657 5657
5661 5662 5657 5648 5645 5640 5635 5629 5621 5618 5616 5623 5622 5620 5620 5621 5622 5623 5625 5627 5628 5630 5631 5631 5633 5634 5636 5638 5640 5642 5643 5645 5646 5648 5649 5649 5650 5650 5651 5651 5651 5651 5651 5651
5650 5659 5653 5639 5646 5643 5639 5637 5631 5622 5625 5629 5625 5625 5625 5626 5626 5627 5628 5630 5631 5633 5634 5634 5635 5636 5636 5638 5640 5641 5642 5642 5643 5644 5644 5644 5645 5645 5645 5644 5644 5644 5644 5644
5651 5652 5639 5648 5662 5657 5648 5645 5643 5640 5637 5635 5633 5633 5634 5634 5632 5632 5634 5635 5636 5637 5638 5639 5639 5639 5639 5639 5640 5640 5640 5640 5640 5641 5641 5641 5640 5640 5639 5639 5638 5637 5636 5636
5649 5646 5647 5655 5663 5659 5650 5646 5651 5646 5646 5643 5641 5636 5634 5641 5641 5640 5641 5641 5641 5642 5643 5642 5642 5642 5641 5640 5640 5639 5639 5639 5639 5639 5638 5637 5636 5635 5634 5633 5632 5631 5630 5630
5656 5653 5648 5662 5672 5673 5659 5644 5657 5654 5649 5647 5642 5627 5631 5645 5647 5647 5648 5647 5647 5647 5647 5646 5646 5646 5644 5642 5641 5640 5640 5639 5639 5638 5637 5635 5633 5632 5630 5629 5627 5626 5624 5623
5661 5659 5662 5678 5681 5673 5646 5650 5664 5660 5655 5651 5643 5640 5645 5652 5652 5652 5653 5653 5653 5652 5650 5650 5651 5649 5647 5645 5644 5644 5643 5641 5639 5638 5636 5633 5632 5630 5627 5625 5623 5620 5618 5616
5661 5660 5666 5687 5681 5668 5668 5673 5670 5665 5662 5659 5656 5657 5657 5656 5655 5655 5655 5657 5657 5655 5654 5655 5655 5653 5651 5649 5649 5647 5644 5642 5639 5637 5636 5632 5629 5626 5624 5621 5618 5615 5612 5610
5680 5681 5695 5694 5692 5691 5685 5678 5674 5670 5669 5666 5663 5661 5660 5659 5659 5659 5659 5659 5660 5659 5658 5659 5659 5658 5655 5654 5653 5649 5645 5641 5638 5636 5632 5630 5627 5623 5620 5617 5613 5610 5607 5604
5693 5696 5701 5700 5700 5697 5693 5686 5682 5678 5675 5671 5667 5665 5664 5662 5661 5661 5662 5662 5662 5662 5661 5661 5662 5662 5660 5659 5656 5652 5647 5642 5639 5635 5631 5627 5624 5621 5617 5613 5610 5607 5604 5600
5697 5702 5702 5703 5702 5699 5695 5691 5687 5683 5679 5675 5672 5669 5668 5664 5664 5664 5664 5664 5665 5663 5663 5664 5665 5665 5664 5662 5659 5653 5648 5644 5640 5635 5631 5626 5622 5618 5615 5611 5608 5605 5601 5599
5701 5708 5703 5703 5706 5704 5698 5693 5689 5685 5681 5679 5676 5673 5671 5668 5667 5667 5667 5667 5667 5666 5666 5667 5667 5666 5666 5664 5661 5655 5650 5645 5641 5636 5631 5627 5623 5618 5615 5612 5610 5607 5604 5602
5726 5724 5718 5717 5712 5708 5703 5698 5694 5689 5684 5680 5679 5677 5674 5671 5670 5669 5669 5669 5669 5669 5669 5669 5669 5668 5667 5666 5663 5658 5653 5648 5644 5639 5635 5629 5625 5621 5617 5614 5612 5609 5606 5604
5733 5727 5720 5716 5713 5710 5706 5702 5697 5692 5688 5685 5681 5679 5676 5674 5672 5671 5670 5671 5671 5671 5671 5671 5670 5669 5669 5667 5664 5660 5656 5653 5648 5643 5639 5634 5630 5625 5621 5617 5613 5610 5608 5607
5731 5730 5724 5721 5716 5711 5708 5702 5695 5690 5688 5685 5683 5680 5677 5674 5673 5672 5673 5674 5673 5673 5672 5672 5671 5670 5670 5669 5666 5662 5659 5655 5651 5648 5644 5639 5635 5630 5626 5621 5617 5613 5610 5609
5729 5726 5723 5718 5714 5710 5706 5701 5695 5691 5688 5686 5683 5681 5679 5677 5675 5674 5675 5675 5673 5672 5672 5672 5671 5671 5671 5670 5667 5664 5661 5659 5656 5651 5648 5644 5639 5634 5629 5625 5621 5617 5614 5612
5721 5717 5715 5713 5711 5709 5706 5703 5698 5694 5691 5687 5685 5683 5681 5678 5676 5674 5674 5675 5674 5673 5673 5672 5672 5672 5672 5672 5669 5666 5663 5661 5660 5655 5651 5648 5643 5639 5634 5630 5626 5622 5619 5617
5727 5724 5720 5716 5713 5709 5705 5703 5700 5697 5693 5691 5688 5684 5681 5678 5675 5674 5674 5674 5673 5672 5672 5673 5673 5673 5673 5673 5671 5668 5665 5663 5660 5657 5654 5651 5648 5644 5640 5635 5631 5627 5623 5621
5724 5721 5718 5715 5713 5710 5706 5702 5700 5698 5696 5692 5688 5684 5682 5679 5677 5676 5675 5673 5671 5670 5671 5672 5673 5673 5673 5673 5672 5669 5667 5665 5663 5660 5658 5656 5652 5648 5644 5640 5636 5633 5629 5626
5719 5718 5715 5713 5711 5707 5704 5702 5700 5697 5694 5692 5688 5683 5680 5679 5678 5676 5674 5672 5671 5671 5672 5671 5671 5672 5673 5672 5672 5669 5668 5667 5665 5662 5660 5657 5655 5652 5649 5646 5642 5638 5634 5631
5711 5711 5710 5708 5706 5705 5703 5700 5697 5693 5691 5689 5685 5682 5679 5678 5677 5675 5672 5669 5672 5673 5671 5671 5670 5671 5671 5671 5671 5669 5669 5668 5666 5664 5662 5660 5658 5655 5653 5650 5647 5644 5640 5636
5700 5701 5702 5701 5700 5698 5697 5695 5693 5691 5687 5684 5682 5680 5677 5674 5673 5672 5671 5670 5672 5672 5670 5669 5669 5670 5670 5670 5669 5669 5669 5669 5668 5666 5664 5662 5660 5658 5656 5654 5651 5648 5645 5641
5686 5688 5690 5690 5690 5690 5689 5688 5687 5685 5682 5680 5678 5675 5673 5672 5670 5668 5667 5670 5671 5671 5669 5668 5668 5669 5669 5668 5667 5667 5668 5668 5668 5667 5666 5665 5663 5661 5659 5657 5654 5652 5648 5645
5670 5673 5676 5678 5679 5678 5677 5677 5678 5678 5677 5675 5674 5673 5670 5667 5666 5666 5667 5669 5669 5668 5667 5667 5667 5667 5667 5666 5665 5665 5666 5667 5668 5668 5667 5666 5665 5663 5661 5659 5656 5654 5651 5648
5653 5656 5659 5662 5662 5664 5666 5668 5668 5667 5667 5666 5666 5666 5666 5665 5664 5664 5664 5664 5664 5664 5663 5663 5664 5665 5664 5663 5663 5664 5664 5665 5666 5666 5667 5666 5665 5663 5662 5660 5658 5656 5653 5650
5634 5637 5640 5644 5647 5650 5653 5654 5654 5655 5655 5656 5656 5657 5658 5658 5658 5658 5658 5658 5659 5659 5658 5658 5658 5659 5659 5660 5661 5662 5662 5663 5664 5665 5665 5665 5664 5663 5662 5660 5659 5656 5654 5652
5616 5619 5622 5627 5631 5634 5637 5639 5641 5643 5645 5646 5647 5649 5650 5650 5650 5650 5650 5650 5651 5651 5651 5652 5653 5653 5654 5655 5657 5658 5659 5660 5661 5662 5662 5662 5661 5661 5660 5659 5658 5656 5654 5652